User: anonymous   Login
Location: Caltech
(34.1382°N, 118.1253°W)
Time: 20:22:29
(UTC-07:00)
Language:

Cosmos 1833 Rocket - Orbit

View from above orbital plane
View from above orbital plane
View from above satellite
View from above satellite

Ground track
Ground track

The orbit data is extracted from the following two-line orbital elements,

1 17590U 87027B   16144.73926594 -.00000009  00000-0  19341-4 0  9999
2 17590  71.0041 250.0369 0005483 202.0727 158.0161 14.16726259508965
Epoch (UTC): 23 May 2016 17:44:32
Eccentricity: 0.0005483
inclination: 71.0041°
perigee height: 832 km
apogee height: 840 km
right ascension of ascending node: 250.0369°
argument of perigee: 202.0727°
revolutions per day: 14.16726259
mean anomaly at epoch: 158.0161°
orbit number at epoch: 50896

The dashed part of the orbit path shows where the satellite is in the earth's shadow,  

DLR